Lawrence, KS

4:46 AM CST on December 09, 2016 (GMT -0600)
Lawrence Municipal

Weather History for KLWC - September, 2012

Change the Weather History Date:

Friday, September 14, 2012

  Actual Average Record
Temperature  
Mean Temperature 60 °F 69 °F  
Max Temperature 73 °F 82 °F 91 °F (2004)
Min Temperature 47 °F 56 °F 42 °F (1999)
Degree Days  
Heating Degree Days 5 1  
Month to date heating degree days 16 7  
Since 1 July heating degree days 16 10  
Cooling Degree Days 0 5  
Month to date cooling degree days 118 98  
Year to date cooling degree days 1718 1289  
Growing Degree Days 11 (Base 50)    
Moisture  
Dew Point 50 °F    
Average Humidity 69    
Maximum Humidity 93    
Minimum Humidity 44    
Precipitation  
Precipitation 0.00 in 0.11 in 0.95 in (2016)
Month to date precipitation 1.54 2.19  
Year to date precipitation 17.93 30.05  
Sea Level Pressure  
Sea Level Pressure 30.35 in    
Wind  
Wind Speed 4 mph (NNE)    
Max Wind Speed 14 mph    
Max Gust Speed 18 mph    
Visibility 10 miles    
Events Rain    
T = Trace of Precipitation, MM = Missing Value Source: NWS Daily Summary

Daily Weather History Graph

Daily Weather History Graph

Search for Another Location

Airport or City:

Trip Planner

Search our weather history database for the weather conditions in past years. The results will help you decide how hot, cold, wet, or windy it might be!

Date:

Astronomy

Sep. 14, 2012 Rise Set
Actual Time 7:01 AM CDT 7:29 PM CDT
Civil Twilight 6:34 AM CDT 7:56 PM CDT
Nautical Twilight 6:03 AM CDT 8:28 PM CDT
Astronomical Twilight 5:31 AM CDT 9:00 PM CDT
Moon 5:27 AM CDT (9/14) 6:27 PM CDT (9/14)
Length of Visible Light 13h 21m
Length of Day
12h 28m
Waning Crescent, 2% of the Moon is Illuminated
Sep 14
Waning Crescent
Sep 15
New
Sep 22
First Quarter
Sep 29
Full
Oct 8
Last Quarter

Hourly Weather History & Observations

Time (CDT) Temp. Dew Point Humidity Pressure Visibility Wind Dir Wind Speed Gust Speed Precip Events Conditions
12:52 AM 55.0 °F 53.1 °F 93% 30.39 in 10.0 mi North 3.5 mph - 0.02 in Rain Light Rain
1:52 AM 55.0 °F 52.0 °F 89% 30.39 in 10.0 mi Calm Calm - N/A   Clear
2:52 AM 54.0 °F 52.0 °F 93% 30.38 in 10.0 mi Calm Calm - N/A   Scattered Clouds
3:52 AM 54.0 °F 52.0 °F 93% 30.36 in 10.0 mi Calm Calm - N/A   Clear
4:52 AM 54.0 °F 52.0 °F 93% 30.35 in 10.0 mi Calm Calm - N/A   Clear
5:52 AM 53.1 °F 51.1 °F 93% 30.36 in 9.0 mi North 3.5 mph - N/A   Mostly Cloudy
6:52 AM 53.1 °F 51.1 °F 93% 30.36 in 7.0 mi North 3.5 mph - N/A   Mostly Cloudy
7:52 AM 53.1 °F 51.1 °F 93% 30.39 in 6.0 mi North 6.9 mph - N/A   Clear
8:52 AM 55.0 °F 52.0 °F 89% 30.40 in 9.0 mi North 4.6 mph - N/A   Partly Cloudy
9:52 AM 57.0 °F 52.0 °F 83% 30.40 in 10.0 mi North 4.6 mph - N/A   Clear
11:52 AM 62.1 °F 50.0 °F 65% 30.38 in 10.0 mi NNE 8.1 mph - N/A   Clear
2:52 PM 70.0 °F 46.9 °F 44% 30.33 in 10.0 mi ENE 10.4 mph 18.4 mph N/A   Clear
3:52 PM 72.0 °F 48.9 °F 44% 30.31 in 10.0 mi NNE 11.5 mph - N/A   Clear
4:52 PM 70.0 °F 48.0 °F 46% 30.30 in 10.0 mi NE 6.9 mph - N/A   Clear
5:52 PM 70.0 °F 50.0 °F 49% 30.30 in 10.0 mi NE 5.8 mph - N/A   Clear
6:52 PM 66.0 °F 48.0 °F 52% 30.30 in 10.0 mi NE 5.8 mph - N/A   Clear
7:52 PM 60.1 °F 48.9 °F 67% 30.29 in 10.0 mi NE 5.8 mph - N/A   Clear
8:52 PM 55.9 °F 48.9 °F 77% 30.31 in 10.0 mi Calm Calm - N/A   Clear
9:52 PM 51.1 °F 48.0 °F 89% 30.31 in 10.0 mi Calm Calm - N/A   Clear
10:52 PM 50.0 °F 46.9 °F 89% 30.32 in 10.0 mi Calm Calm - N/A   Scattered Clouds
11:52 PM 46.9 °F 45.0 °F 93% 30.32 in 10.0 mi NNW 3.5 mph - N/A   Clear